This is the latest recevied weather packets stored in our database for station/object NK0Z-13. If no packets are shown the sender has not sent any weather packets the latest 10 day(s).
| Time | Temp. | Humidity | Pressure | Rain* | Wind** | Luminosity | Snow |
|---|---|---|---|---|---|---|---|
| 1777448887 | 4.44° C | 96% | 1022.1 hPa | 0 mm | - | 0 W/m² | - |
| 1777448286 | 4.44° C | 96% | 1021.8 hPa | 0 mm | - | 0 W/m² | - |
| 1777447684 | 4.44° C | 95% | 1021.9 hPa | 0 mm | - | 0 W/m² | - |
| 1777447083 | 5° C | 95% | 1022.3 hPa | 0 mm | - | 0 W/m² | - |
| 1777446482 | 5° C | 95% | 1022.2 hPa | 0 mm | - | 0 W/m² | - |
| 1777445881 | 5° C | 95% | 1022.1 hPa | 0 mm | - | 0 W/m² | - |
| 1777445281 | 5° C | 94% | 1021.9 hPa | 0 mm | - | 0 W/m² | - |
| 1777444677 | 5.56° C | 94% | 1022 hPa | 0 mm | - | 0 W/m² | - |
| 1777444071 | 5.56° C | 94% | 1021.9 hPa | 0 mm | - | 0 W/m² | - |
| 1777443468 | 6.11° C | 94% | 1021.8 hPa | 0 mm | - | 0 W/m² | - |
| 1777442862 | 6.11° C | 94% | 1021.5 hPa | 0 mm | - | 0 W/m² | - |
| 1777442260 | 5.56° C | 94% | 1021.3 hPa | 0 mm | - | 0 W/m² | - |
| 1777441657 | 5.56° C | 93% | 1020.7 hPa | 0 mm | - | 0 W/m² | - |
| 1777441054 | 5.56° C | 93% | 1021.4 hPa | 0 mm | - | 0 W/m² | - |
| 1777440452 | 6.11° C | 92% | 1021.3 hPa | 0 mm | - | 0 W/m² | - |
| 1777439849 | 6.67° C | 91% | 1021.9 hPa | 0 mm | - | 0 W/m² | - |
| 1777439247 | 6.67° C | 91% | 1022.1 hPa | 0 mm | - | 0 W/m² | - |
| 1777438647 | 6.67° C | 91% | 1021.9 hPa | 0 mm | - | 0 W/m² | - |
| 1777438044 | 6.67° C | 90% | 1021.8 hPa | 0 mm | - | 0 W/m² | - |
| 1777437444 | 7.22° C | 90% | 1021.9 hPa | 0 mm | - | 0 W/m² | - |
| 1777436843 | 7.22° C | 89% | 1022.2 hPa | 0 mm | - | 0 W/m² | - |
| 1777436242 | 7.78° C | 88% | 1021.9 hPa | 0 mm | - | 0 W/m² | - |
| 1777435640 | 7.78° C | 88% | 1021.9 hPa | 0 mm | - | 0 W/m² | - |
| 1777435035 | 7.78° C | 87% | 1021.4 hPa | 0 mm | - | 0 W/m² | - |
| 1777434431 | 7.78° C | 86% | 1021.6 hPa | 0 mm | - | 0 W/m² | - |
* Rain latest hour (hover to see other rain measurements)
** Current wind speed in m/s (hover to see current wind gust speed)